Location: Seasalter
(51.3333°N, 1.0167°E)
Time: 14:49:59
(UTC+00:00)

ATLAS 5 CENTAUR R/B - Pass Details

Date: 28 April 2024
Orbit: 421 x 1169 km, 63.3° (Epoch: 22 May)

Event Time Altitude Azimuth Distance (km) Brightness Sun altitude
Rises 22:57:41 0° 315° (NW) 2,786 5.9 -23.0°
Reaches altitude 10° 22:59:50 10° 324° (NW) 1,986 5.1 -23.1°
Maximum altitude 23:04:07 41° 35° (NE) 1,036 2.9 -23.3°
Enters shadow 23:07:33 19° 96° (E) 1,807 3.7 -23.4°
